FW5695 Weather Reports


Display with metric or nautical units.
time (UTC)temp
F
wind
direction
speed
MPH
gust
MPH
rain 1hr
in
rain 24hr
in
rain mn
in
humidity
%
barometer
mb
20210923113208 49 0 0.0 0.0 0.00 0.02 0.00 95 1018.0
20210923112607 49 0 0.0 0.0 0.00 0.02 0.00 95 1017.9
20210923112107 49 0 0.0 0.0 0.00 0.02 0.00 95 1017.9
20210923111644 49 0 0.0 0.0 0.00 0.02 0.00 95 1018.1
20210923111058 49 0 0.0 0.0 0.00 0.02 0.00 95 1017.9
20210923110608 50 0 0.0 0.0 0.00 0.02 0.00 95 1017.9
20210923110145 50 0 0.0 0.0 0.00 0.02 0.00 95 1017.8
20210923105557 50 0 0.0 0.0 0.00 0.02 0.00 95 1017.7
20210923105058 50 0 0.0 1.0 0.00 0.02 0.00 95 1017.8
20210923104646 50 0 0.0 1.0 0.00 0.02 0.00 95 1017.9
20210923104132 50 147 0.0 0.0 0.00 0.02 0.00 95 1017.9
20210923103605 50 154 0.0 0.0 0.00 0.02 0.00 95 1017.6
20210923103143 50 0 0.0 0.0 0.00 0.02 0.00 95 1017.7
20210923102604 51 0 0.0 0.0 0.00 0.02 0.00 95 1017.7
20210923102058 51 0 0.0 1.0 0.00 0.02 0.00 95 1017.8
20210923101637 51 0 0.0 1.0 0.00 0.02 0.00 95 1017.8
20210923101100 51 0 0.0 1.0 0.00 0.02 0.00 95 1017.8
20210923100559 50 0 0.0 0.0 0.00 0.02 0.00 95 1017.8
20210923100248 50 0 0.0 0.0 0.00 0.02 0.00 95 1017.8
20210923095601 50 0 0.0 0.0 0.00 0.02 0.00 95 1017.9
20210923095113 50 0 0.0 0.0 0.00 0.02 0.00 95 1017.8
20210923094659 50 0 0.0 0.0 0.00 0.02 0.00 95 1017.9
20210923094059 50 0 0.0 0.0 0.00 0.02 0.00 95 1017.8
20210923093558 51 0 0.0 0.0 0.00 0.02 0.00 95 1017.8
20210923093108 51 0 0.0 0.0 0.00 0.02 0.00 95 1017.8
20210923092610 51 0 0.0 0.0 0.00 0.02 0.00 95 1017.9
20210923092056 51 0 0.0 0.0 0.00 0.02 0.00 95 1017.8
20210923091619 51 0 0.0 0.0 0.00 0.02 0.00 95 1017.7
20210923091107 51 0 0.0 1.0 0.00 0.02 0.00 95 1017.8
20210923090605 51 0 0.0 1.0 0.00 0.02 0.00 95 1017.7
20210923090226 51 0 0.0 0.0 0.00 0.02 0.00 95 1017.7
20210923085615 51 0 0.0 0.0 0.00 0.02 0.00 95 1017.7
20210923085059 51 0 0.0 0.0 0.00 0.02 0.00 95 1017.5
20210923084707 51 0 0.0 0.0 0.00 0.02 0.00 95 1017.5
20210923084136 51 0 0.0 0.0 0.00 0.02 0.00 95 1017.4
20210923083605 51 0 0.0 0.0 0.00 0.02 0.00 95 1017.6
20210923083213 51 0 0.0 0.0 0.00 0.02 0.00 95 1017.7
20210923082611 51 0 0.0 0.0 0.00 0.02 0.00 95 1017.6
20210923082102 52 0 0.0 0.0 0.00 0.02 0.00 95 1017.7
20210923081703 52 0 0.0 0.0 0.00 0.02 0.00 95 1017.8
20210923081104 52 0 0.0 0.0 0.00 0.02 0.00 95 1017.7
20210923080558 52 0 0.0 0.0 0.00 0.02 0.00 95 1017.7
20210923080127 51 0 0.0 0.0 0.00 0.02 0.00 95 1017.7
20210923075600 51 0 0.0 0.0 0.00 0.02 0.00 95 1017.7
20210923075057 52 0 0.0 0.0 0.00 0.02 0.00 95 1017.7
20210923074625 52 0 0.0 1.0 0.00 0.02 0.00 95 1017.7
20210923074059 52 0 0.0 1.0 0.00 0.02 0.00 95 1017.8
20210923073559 52 0 0.0 0.0 0.00 0.02 0.00 95 1017.7
20210923073126 52 0 0.0 0.0 0.00 0.02 0.00 95 1017.8
20210923072558 52 0 0.0 0.0 0.00 0.02 0.00 95 1017.9
20210923072057 52 0 0.0 0.0 0.00 0.02 0.00 95 1017.9
20210923071618 53 0 0.0 0.0 0.00 0.02 0.00 95 1018.0
20210923071057 53 250 0.0 0.0 0.00 0.02 0.00 95 1017.8
20210923070600 53 0 0.0 0.0 0.00 0.02 0.00 95 1017.9
20210923070214 53 0 0.0 0.0 0.00 0.02 0.00 95 1017.9
20210923065559 53 0 0.0 0.0 0.00 0.02 0.00 95 1017.7
20210923065110 53 204 0.0 0.0 0.00 0.02 0.00 94 1017.6
20210923064614 53 0 0.0 0.0 0.00 0.02 0.00 94 1017.7
20210923064103 53 0 0.0 0.0 0.00 0.02 0.00 94 1017.9
20210923063729 53 0 0.0 0.0 0.00 0.02 0.00 94 1017.8
20210923063138 53 0 0.0 0.0 0.00 0.02 0.00 94 1017.9
20210923062624 53 0 0.0 0.0 0.00 0.02 0.00 94 1017.9
20210923062112 53 0 0.0 0.0 0.00 0.02 0.00 94 1017.9
20210923061641 53 0 0.0 0.0 0.00 0.02 0.00 94 1017.9
20210923061114 54 0 0.0 0.0 0.00 0.02 0.00 94 1018.0
20210923060557 54 0 0.0 0.0 0.00 0.02 0.00 94 1017.9
20210923060153 54 0 0.0 1.0 0.00 0.02 0.00 94 1018.0
20210923055558 54 0 0.0 1.0 0.00 0.02 0.00 94 1017.9
20210923055058 54 0 0.0 0.0 0.00 0.02 0.00 94 1017.9
20210923054603 54 0 0.0 0.0 0.00 0.02 0.00 94 1018.0
20210923054057 54 0 0.0 0.0 0.00 0.02 0.00 94 1018.0
20210923053618 54 0 0.0 1.0 0.00 0.02 0.00 94 1018.1
20210923053214 54 292 0.0 1.0 0.00 0.02 0.00 94 1018.0
20210923052600 54 294 0.0 0.0 0.00 0.02 0.00 94 1018.0
20210923052143 54 0 0.0 0.0 0.00 0.02 0.00 94 1018.2
20210923051628 54 0 0.0 0.0 0.00 0.02 0.00 94 1018.3
20210923051106 54 0 0.0 0.0 0.00 0.02 0.00 94 1018.4
20210923050557 54 0 0.0 0.0 0.00 0.02 0.00 94 1018.4
20210923050204 55 0 0.0 0.0 0.00 0.02 0.00 94 1018.3
20210923045558 55 0 0.0 0.0 0.01 0.02 0.02 94 1018.4
20210923045058 55 0 0.0 0.0 0.01 0.02 0.02 94 1018.3
20210923044719 55 0 0.0 0.0 0.01 0.02 0.02 94 1018.4
20210923044059 55 0 0.0 0.0 0.01 0.02 0.02 94 1018.3
20210923043637 55 0 0.0 0.0 0.01 0.02 0.02 94 1018.4
20210923043240 55 0 0.0 0.0 0.01 0.02 0.02 94 1018.3
20210923042605 55 0 0.0 0.0 0.01 0.02 0.02 94 1018.4
20210923042056 56 0 0.0 1.0 0.01 0.02 0.02 94 1018.3
20210923041659 56 0 0.0 1.0 0.01 0.02 0.02 94 1018.3
20210923041104 56 0 0.0 1.0 0.01 0.02 0.02 94 1018.5
20210923040615 56 0 0.0 1.0 0.01 0.02 0.02 94 1018.4
20210923040228 56 0 0.0 1.0 0.01 0.02 0.02 94 1018.4
20210923035601 56 0 0.0 1.0 0.00 0.01 0.01 93 1018.4
20210923035057 56 131 0.0 1.0 0.00 0.01 0.01 93 1018.4
20210923034642 56 136 0.0 1.0 0.00 0.01 0.01 93 1018.4
20210923034058 57 0 0.0 1.0 0.00 0.01 0.01 93 1018.4
20210923033557 57 0 0.0 1.0 0.00 0.01 0.01 93 1018.4
20210923033134 57 0 0.0 0.0 0.00 0.01 0.01 93 1018.3
20210923032614 57 0 0.0 0.0 0.00 0.01 0.01 93 1018.2
20210923032056 57 0 0.0 1.0 0.00 0.01 0.01 93 1018.1
20210923031810 57 0 0.0 1.0 0.00 0.01 0.01 93 1018.2
20210923031058 58 293 0.0 1.0 0.00 0.01 0.01 93 1018.1
20210923030558 58 301 0.0 1.0 0.00 0.01 0.01 93 1018.0
20210923030131 57 223 0.0 1.0 0.00 0.01 0.01 93 1018.0
20210923025605 58 312 0.0 1.0 0.00 0.01 0.01 93 1018.0
20210923025059 57 307 0.0 1.0 0.00 0.01 0.01 94 1017.9
20210923024721 57 308 0.0 1.0 0.00 0.01 0.01 94 1017.8
20210923024101 57 284 0.0 1.0 0.00 0.01 0.01 94 1017.8
20210923023611 57 0 0.0 1.0 0.00 0.01 0.01 94 1017.8
20210923023124 57 0 0.0 1.0 0.00 0.01 0.01 94 1017.8
20210923022640 57 0 0.0 1.0 0.00 0.01 0.01 94 1017.7
20210923022057 58 0 0.0 1.0 0.00 0.01 0.01 94 1017.7
20210923021719 57 295 0.0 0.0 0.00 0.01 0.01 94 1017.7
20210923021106 57 0 0.0 0.0 0.00 0.01 0.01 94 1017.6
20210923020613 58 0 0.0 0.0 0.00 0.01 0.01 94 1017.5
20210923020219 58 0 0.0 1.0 0.00 0.01 0.01 94 1017.5
20210923015559 58 0 0.0 1.0 0.00 0.01 0.01 94 1017.4
20210923015102 58 0 0.0 0.0 0.00 0.01 0.01 94 1017.4
20210923014700 58 0 0.0 0.0 0.01 0.01 0.01 93 1017.3
20210923014058 58 0 0.0 0.0 0.01 0.01 0.01 94 1017.4
20210923013602 58 0 0.0 0.0 0.01 0.01 0.01 93 1017.3
20210923013118 58 0 0.0 1.0 0.01 0.01 0.01 93 1017.2
20210923012606 58 0 0.0 1.0 0.01 0.01 0.01 93 1017.2
20210923012059 58 0 0.0 1.0 0.01 0.01 0.01 93 1016.9
20210923011751 59 0 0.0 1.0 0.01 0.01 0.01 93 1017.0
20210923011104 59 0 0.0 0.0 0.01 0.01 0.01 93 1017.0
20210923010601 59 0 0.0 1.0 0.01 0.01 0.01 93 1016.8
20210923010138 59 0 0.0 1.0 0.01 0.01 0.01 92 1016.8
20210923005605 60 297 0.0 1.0 0.01 0.01 0.01 92 1016.7
20210923005101 60 330 0.0 2.0 0.01 0.01 0.01 92 1016.6
20210923004705 60 31 0.0 2.0 0.00 0.00 0.00 92 1016.6
20210923004136 60 0 0.0 1.0 0.00 0.00 0.00 91 1016.5
20210923003558 60 296 0.0 1.0 0.00 0.00 0.00 90 1016.6
20210923003133 61 0 0.0 1.0 0.00 0.00 0.00 90 1016.6
20210923002557 61 0 1.0 1.0 0.00 0.00 0.00 90 1016.5
20210923002118 61 310 0.0 1.0 0.00 0.00 0.00 89 1016.5
20210923001621 62 308 0.0 1.0 0.00 0.00 0.00 89 1016.4
20210923001104 62 0 0.0 1.0 0.00 0.00 0.00 88 1016.4
20210923000559 62 0 0.0 1.0 0.00 0.00 0.00 87 1016.4
20210923000148 63 301 0.0 1.0 0.00 0.00 0.00 86 1016.3
20210922235556 63 311 0.0 1.0 0.00 0.00 0.00 85 1016.4
20210922235059 64 306 0.0 1.0 0.00 0.00 0.00 83 1016.3
20210922234656 64 300 0.0 1.0 0.00 0.00 0.00 83 1016.4
20210922234106 65 296 1.0 1.0 0.00 0.00 0.00 79 1016.3
20210922233600 66 297 1.0 3.0 0.00 0.00 0.00 79 1016.2
20210922233206 66 313 1.0 3.0 0.00 0.00 0.00 77 1016.4
20210922232559 68 309 1.0 3.0 0.00 0.00 0.00 73 1016.3
20210922232129 69 301 1.0 4.0 0.00 0.00 0.00 71 1016.4
20210922231629 70 283 1.0 5.0 0.00 0.00 0.00 69 1016.5
20210922231059 70 169 2.0 5.0 0.00 0.00 0.00 67 1016.4
20210922230613 70 319 1.0 3.0 0.00 0.00 0.00 68 1016.4
20210922230131 71 288 2.0 3.0 0.00 0.00 0.00 67 1016.1
20210922225634 71 273 1.0 4.0 0.00 0.00 0.00 67 1016.1
20210922225138 71 278 1.0 4.0 0.00 0.00 0.00 65 1016.2
20210922224651 71 303 2.0 6.0 0.00 0.00 0.00 66 1016.2
20210922224109 71 275 2.0 6.0 0.00 0.00 0.00 64 1016.2
20210922223603 71 328 2.0 6.0 0.00 0.00 0.00 64 1016.2
20210922223148 72 308 2.0 7.0 0.00 0.00 0.00 63 1016.3
20210922222555 73 151 2.0 10.0 0.00 0.00 0.00 61 1016.3
20210922222107 72 24 4.0 10.0 0.00 0.00 0.00 62 1016.3
20210922221610 73 106 2.0 8.0 0.00 0.00 0.00 62 1016.1
20210922221058 73 149 2.0 9.0 0.00 0.00 0.00 62 1016.3
20210922220558 72 344 3.0 12.0 0.00 0.00 0.00 61 1016.3
20210922220158 72 292 3.0 12.0 0.00 0.00 0.00 61 1016.3
20210922215557 72 261 3.0 9.0 0.00 0.00 0.00 60 1016.3
20210922215120 72 112 4.0 12.0 0.00 0.00 0.00 60 1016.4
20210922214638 73 294 3.0 12.0 0.00 0.00 0.00 59 1016.4
20210922214058 72 44 5.0 11.0 0.00 0.00 0.00 59 1016.4
20210922213605 73 94 4.0 10.0 0.00 0.00 0.00 61 1016.3
20210922213152 73 256 3.0 17.0 0.00 0.00 0.00 60 1016.3
20210922212600 73 288 6.0 17.0 0.00 0.00 0.00 58 1016.2
20210922212059 73 287 4.0 13.0 0.00 0.00 0.00 58 1016.2
20210922211632 73 254 4.0 11.0 0.00 0.00 0.00 60 1016.2
20210922211100 73 235 5.0 14.0 0.00 0.00 0.00 61 1016.1
20210922210559 73 317 4.0 14.0 0.00 0.00 0.00 64 1016.1
20210922210230 73 259 5.0 12.0 0.00 0.00 0.00 64 1016.2
20210922205600 72 311 3.0 10.0 0.00 0.00 0.00 66 1016.1
20210922205058 72 120 5.0 10.0 0.00 0.00 0.00 65 1016.1
20210922204641 72 299 4.0 7.0 0.00 0.00 0.00 68 1016.2
20210922204115 71 298 3.0 6.0 0.00 0.00 0.00 71 1016.2
20210922203604 71 281 3.0 6.0 0.00 0.00 0.00 68 1016.3
20210922203223 71 306 3.0 9.0 0.00 0.00 0.00 68 1016.3
20210922202601 71 283 4.0 9.0 0.00 0.00 0.00 67 1016.3
20210922202059 72 325 3.0 10.0 0.00 0.00 0.00 65 1016.2
20210922201633 72 310 3.0 10.0 0.00 0.00 0.00 65 1016.4
20210922201100 73 155 2.0 9.0 0.00 0.00 0.00 65 1016.2
20210922200604 72 300 3.0 9.0 0.00 0.00 0.00 68 1016.4
20210922200152 73 166 3.0 9.0 0.00 0.00 0.00 63 1016.4
20210922195608 74 119 3.0 9.0 0.00 0.00 0.00 65 1016.4
20210922195101 72 221 1.0 10.0 0.00 0.00 0.00 68 1016.5
20210922194754 72 318 4.0 11.0 0.00 0.00 0.00 65 1016.5
20210922194148 71 132 5.0 11.0 0.00 0.00 0.00 68 1016.6
20210922193600 71 244 2.0 10.0 0.00 0.00 0.00 70 1016.5
20210922193140 70 305 4.0 10.0 0.00 0.00 0.00 69 1016.7
20210922192559 71 300 2.0 10.0 0.00 0.00 0.00 67 1016.6
20210922192102 72 83 2.0 6.0 0.00 0.00 0.00 69 1016.6
20210922191750 71 195 2.0 8.0 0.00 0.00 0.00 70 1016.7
20210922191057 71 303 3.0 9.0 0.00 0.00 0.00 70 1016.6
20210922190621 72 176 3.0 10.0 0.00 0.00 0.00 69 1016.7
20210922190116 72 289 5.0 11.0 0.00 0.00 0.00 67 1016.7
20210922185557 73 315 3.0 12.0 0.00 0.00 0.00 66 1016.6
20210922185124 73 205 5.0 12.0 0.00 0.00 0.00 66 1016.6
20210922184613 74 289 5.0 11.0 0.00 0.00 0.00 64 1016.7
20210922184102 73 301 4.0 9.0 0.00 0.00 0.00 66 1016.8
20210922183603 73 164 4.0 11.0 0.00 0.00 0.00 67 1016.8
20210922183148 72 323 5.0 11.0 0.00 0.00 0.00 68 1016.8
20210922182607 72 280 4.0 11.0 0.00 0.00 0.00 68 1016.8
20210922182114 72 270 3.0 9.0 0.00 0.00 0.00 67 1016.8
20210922181643 73 245 3.0 9.0 0.00 0.00 0.00 68 1016.8
20210922181102 72 145 3.0 11.0 0.00 0.00 0.00 69 1016.8
20210922180600 71 239 5.0 11.0 0.00 0.00 0.00 71 1017.0
20210922180130 72 160 3.0 9.0 0.00 0.00 0.00 70 1017.1
20210922175607 71 126 2.0 10.0 0.00 0.00 0.00 72 1017.1
20210922175121 71 150 4.0 10.0 0.00 0.00 0.00 71 1017.1
20210922174641 71 140 5.0 10.0 0.00 0.00 0.00 71 1017.2
20210922174058 71 279 4.0 11.0 0.00 0.00 0.00 72 1017.2
20210922173609 71 259 4.0 11.0 0.00 0.00 0.00 72 1017.2
20210922173113 71 328 3.0 11.0 0.00 0.00 0.00 74 1017.2
20210922172557 71 338 4.0 11.0 0.00 0.00 0.00 73 1017.1
20210922172059 71 276 5.0 11.0 0.00 0.00 0.00 72 1016.9
20210922171710 71 67 2.0 11.0 0.00 0.00 0.00 73 1017.0
20210922171116 71 192 4.0 11.0 0.00 0.00 0.00 74 1017.0
20210922170601 71 106 5.0 11.0 0.00 0.00 0.00 75 1016.9
20210922170226 71 339 5.0 11.0 0.00 0.00 0.00 74 1017.1
20210922165634 70 277 4.0 9.0 0.00 0.00 0.00 75 1017.0
20210922165057 70 308 3.0 10.0 0.00 0.00 0.00 77 1017.2
20210922164633 70 325 3.0 14.0 0.00 0.00 0.00 75 1017.1
20210922164100 70 160 4.0 14.0 0.00 0.00 0.00 77 1017.2
20210922163611 70 150 3.0 10.0 0.00 0.00 0.00 78 1017.1
20210922163346 70 300 6.0 10.0 0.00 0.00 0.00 76 1017.1
20210922162603 70 266 4.0 12.0 0.00 0.00 0.00 79 1017.2
20210922162059 69 275 4.0 12.0 0.00 0.00 0.00 78 1017.3
20210922161701 70 281 5.0 11.0 0.00 0.00 0.00 78 1017.3
20210922161059 70 282 4.0 9.0 0.00 0.00 0.00 77 1017.3
20210922160600 70 322 4.0 9.0 0.00 0.00 0.00 78 1017.2
20210922160140 70 260 3.0 11.0 0.00 0.00 0.00 78 1017.3
20210922155607 69 31 5.0 13.0 0.00 0.00 0.00 79 1017.3
20210922155109 69 93 6.0 13.0 0.00 0.00 0.00 80 1017.4
20210922154633 70 307 3.0 8.0 0.00 0.00 0.00 79 1017.4
20210922154106 70 281 4.0 8.0 0.00 0.00 0.00 79 1017.4
20210922153610 70 158 2.0 10.0 0.00 0.00 0.00 80 1017.3
20210922153120 69 3 4.0 10.0 0.00 0.00 0.00 81 1017.3
20210922152603 69 223 3.0 9.0 0.00 0.00 0.00 83 1017.1
20210922152110 69 273 4.0 9.0 0.00 0.00 0.00 82 1017.1
20210922151630 69 176 4.0 7.0 0.00 0.00 0.00 81 1017.1
20210922151114 70 192 3.0 7.0 0.00 0.00 0.00 80 1016.9
20210922150634 70 171 3.0 7.0 0.00 0.00 0.00 80 1016.7
20210922150131 70 287 3.0 8.0 0.00 0.00 0.00 82 1016.8
20210922145558 70 136 1.0 8.0 0.00 0.00 0.00 82 1016.8
20210922145112 70 311 1.0 5.0 0.00 0.00 0.00 82 1017.0
20210922144708 69 325 2.0 10.0 0.00 0.00 0.00 84 1017.0
20210922144057 68 277 3.0 10.0 0.00 0.00 0.00 85 1016.9
20210922143559 68 303 1.0 9.0 0.00 0.00 0.00 85 1016.7
20210922143129 68 228 3.0 7.0 0.00 0.00 0.00 84 1016.5
20210922142601 69 194 2.0 8.0 0.00 0.00 0.00 84 1016.6
20210922142058 69 282 3.0 8.0 0.00 0.00 0.00 84 1016.5
20210922141707 69 60 3.0 8.0 0.00 0.00 0.00 83 1016.5
20210922141105 69 277 2.0 8.0 0.00 0.00 0.00 84 1016.5
20210922140558 68 341 2.0 10.0 0.00 0.00 0.00 85 1016.2
20210922140202 68 89 3.0 10.0 0.00 0.00 0.00 87 1016.4
20210922135558 67 271 2.0 5.0 0.00 0.00 0.00 89 1016.4
20210922135105 67 210 0.0 4.0 0.00 0.00 0.00 90 1016.3
20210922134646 66 275 1.0 5.0 0.00 0.00 0.00 90 1016.4
20210922134109 66 0 2.0 5.0 0.00 0.00 0.00 89 1016.4
20210922133558 66 197 2.0 5.0 0.00 0.00 0.00 89 1016.3
20210922133329 67 306 1.0 5.0 0.00 0.00 0.00 90 1016.3
20210922132558 67 65 1.0 3.0 0.00 0.00 0.00 90 1016.1
20210922132104 67 303 0.0 4.0 0.00 0.00 0.00 91 1016.0
20210922131745 66 100 1.0 13.0 0.00 0.00 0.00 90 1016.0
20210922131109 67 296 2.0 13.0 0.00 0.00 0.00 90 1016.1
20210922130604 67 216 2.0 10.0 0.00 0.00 0.00 91 1016.4
20210922130151 67 298 4.0 11.0 0.00 0.00 0.00 90 1016.6
20210922125602 67 178 5.0 13.0 0.00 0.00 0.00 90 1016.4
20210922125102 68 234 5.0 13.0 0.00 0.00 0.00 90 1016.4
20210922124642 68 296 5.0 14.0 0.00 0.00 0.00 89 1016.3
20210922124059 69 346 5.0 14.0 0.00 0.00 0.00 89 1016.2
20210922123606 69 126 3.0 14.0 0.00 0.00 0.00 89 1016.0
20210922123106 69 251 5.0 14.0 0.00 0.00 0.00 89 1015.9
20210922122610 69 133 4.0 14.0 0.00 0.00 0.00 90 1015.8
20210922122116 70 269 4.0 13.0 0.00 0.00 0.00 90 1015.8
20210922121651 70 311 5.0 14.0 0.00 0.00 0.00 91 1015.6
20210922121058 71 312 6.0 14.0 0.00 0.00 0.00 91 1015.5
20210922120600 71 302 4.0 14.0 0.00 0.00 0.00 91 1015.2
20210922120133 71 316 6.0 13.0 0.00 0.00 0.00 91 1015.3
20210922115558 72 310 6.0 12.0 0.00 0.00 0.00 91 1015.3
20210922115104 72 273 3.0 7.0 0.00 0.00 0.00 91 1015.0
20210922114744 72 323 4.0 13.0 0.00 0.00 0.00 91 1015.0
20210922114058 72 41 5.0 13.0 0.00 0.00 0.00 91 1015.0
20210922113608 72 313 4.0 8.0 0.00 0.00 0.00 92 1014.9